SL-19 DEB, 23495

Orbit data source: Space-Track

SL-19 DEB, 23495 is space debris in LEO originally from a launch on Mon, 26 Dec 1994 UTC launched from the Tyuratam Missile And Space Complex (TTMTR). Debris objects in space refer to the collection of defunct objects orbiting the Earth. Examples of debris include non-operational satellites, rocket bodies, and fragments generated from explosions, collisions, or faulty payload assembly.

Loading next visibility...
Identifier
23495, 1994-085T
Orbit
LEO
Country
Flag of CISCIS
Related business
Manufacturer
Unknown
Mission
Spacecraft
Bus & Motor
Unknown
Mass
Unknown
Launch date (UTC)
1994-12-26 (31 years ago)
Launch vehicle
Unknown
Launch site
Tyuratam Missile And Space Complex (TTMTR)
Object type
Payload
Rocket body
Debris
Shape & HBR
Unknown shape, 0.2 m
Radar Cross Section
Medium (>0.1 m² and <1 m²)

Expand to show TLE details & history
Last TLE update: 3 days ago

TLE from 3 days ago
0 SL-19 DEB
1 23495U 94085T   26170.63845174 -.00000038  00000-0  11060-3 0  9996
2 23495  65.0258 307.8978 0173724  47.0636 336.5699 11.31090085300072
Epoch: 2026-06-19T15:19Z
TLE epoch observation values (Epoch: 2026-06-19T15:19:22.230Z)
Latitude
20.61038°
Longitude
-179.76917°
Altitude
1,873.097 km
Speed
7.008 km/s
True Right ascension
21h 11m 45s
True Declination
20° 30' 45"
Sunlit
Object was in daylight at epoch
Visualization orbit readout
Latitude
Unknown
Longitude
Unknown
Altitude
Unknown
Speed
Unknown
Apparent Right ascension
Unknown
Apparent Declination
Unknown
Sunlit
N/A
Visualization observer readout
Local Sidereal Time
00:56:28
Azimuth
Unknown
Elevation
Unknown
Doppler factor
Unknown
Orbital elements
Apogee altitude
2,149.341 km
Perigee altitude
1,858.115 km
Semi-major axis
8,381.865 km
Eccentricity
0.01737
Inclination
65.0258°
RAAN
307.8978°
Arg. of periapsis
47.0636°
True anomaly
335.76227°
Mean anomaly
336.5699°
Eccentric anomaly
336.16771°
Mean motion
2.82834 °/min
Orbital period
127.28 mins
BSTAR
0.0001106
Loading maneuver chart data...
Computing Atmospheric mass density...
Loading historical data...
Loading historical data...
Loading historical data...
Loading historical data...
Loading historical data...
Loading historical data...
Loading historical data...

Documentation

Showing up to 5 results
|